Skip Page Navigation
NASA JPL Caltech
NASA Logo - Jet Propulsion Laboratory + View the NASA Portal
+ Center for Near-Earth Object Studies
JPL Home Earth Solar System Stars & Galaxies Technology
JPL Solar System Dynamics
BODIES ORBITS EPHEMERIDES TOOLS PHYSICAL DATA DISCOVERY FAQ SITE MAP
IMPORTANT: The SSD Announcement email list is now available. Major changes are coming in the near future, including possible hostname and/or URL changes. To be notified of such changes, subscribe to this email list.

Please visit this page for more details.


JPL Small-Body Database Browser
Search: [ help ]  
277245 (2005 RX24)
Classification: Main-belt Asteroid          SPK-ID: 2277245
Ephemeris | Orbit Diagram | Orbital Elements | Mission Design | Physical Parameters | Discovery Circumstances ]

[ show orbit diagram ]
Orbital Elements at Epoch 2458600.5 (2019-Apr-27.0) TDB
Reference: JPL 10 (heliocentric ecliptic J2000)
 Element Value Uncertainty (1-sigma)   Units 
e .2808535534512743 9.52e-08  
a 2.343956194624945 1.8928e-08 au
q 1.685647768230402 2.3418e-07 au
i 8.993845315105116 7.4689e-06 deg
node 35.48810582233355 3.1111e-05 deg
peri 317.2755181081634 3.3067e-05 deg
M 301.5139963704913 1.2393e-05 deg
tp 2458813.447286075396
(2019-Nov-25.94728608)
4.6908e-05 TDB
period 1310.758441844773
3.59
1.5877e-05
4.347e-08
d
yr
n .2746501479657326 3.3269e-09 deg/d
Q 3.002264621019488 2.4244e-08 au
  Orbit Determination Parameters
   # obs. used (total)      335  
   data-arc span      6042 days (16.54 yr)  
   first obs. used      2003-02-01  
   last obs. used      2019-08-18  
   planetary ephem.      DE431  
   SB-pert. ephem.      SB431-N16  
   condition code      0  
   norm. resid. RMS      .46085  
   source      ORB  
   producer      Otto Matic  
   solution date      2019-Sep-24 04:46:41  

Additional Information
 Earth MOID = .693571 au 
 Jupiter MOID = 2.4636 au 
 T_jup = 3.492 
[ show covariance matrix ]

Ephemeris | Orbit Diagram | Orbital Elements | Mission Design | Physical Parameters | Discovery Circumstances ]

Physical Parameter Table
Parameter Symbol Value Units Sigma Reference Notes
absolute magnitude H 16.4   n/a MPO437262  

277245 (2005 RX24)          Discovered 2005-Sep-06 by CSS at Catalina
Reference: 20110517/Numbers.arcLast Updated: 2011-05-20

Alternate Designations
 2005 RX24 = 2004 HE71 
Ephemeris | Orbit Diagram | Orbital Elements | Mission Design | Physical Parameters | Discovery Circumstances ]
ABOUT SSD CREDITS/AWARDS PRIVACY/COPYRIGHT GLOSSARY LINKS
FirstGov 2019-Dec-12 06:37 UT
(server date/time)  
NASA Home Page
Site Manager:   Ryan S. Park
Webmaster  Alan B. Chamberlin